Location: Mizzole
(45.4833°N, 11.0500°E)
Time: 10:57:46
(UTC+00:00)

Cosmos 1898 Rocket - Pass Details

Date: 21 October 2019
Orbit: 753 x 784 km, 74.0° (Epoch: 21 November)

Event Time Altitude Azimuth Distance (km) Brightness Sun altitude
Rises 18:41:37 0° 337° (NNW) 3,253 7.2 -25.3°
Reaches altitude 10° 18:44:00 10° 336° (NNW) 2,327 6.4 -25.7°
Maximum altitude 18:49:17 77° 251° (WSW) 803 3.6 -26.6°
Enters shadow 18:50:03 63° 190° (S) 866 3.6 -26.8°
